カタログに戻る

STARLINK-11680

運用中通信VLEO
NORAD 63554·PAYLOAD·🇺🇸 United States

打ち上げ Apr 13, 2025 から Cape Canaveral Space Force Station

Loading…

次のパス (今後24時間)

TLE

最新Source: CelesTrak SupGP

元期: Sep 15, 2026, 02:37 UTC

1 63554C 25075G   26258.10951389  .00052726  00000+0  40920-3 0  2588
2 63554  43.0005  92.2020 0001716 274.6190 229.7034 15.70830603    17

AllMySatでSTARLINK-11680をリアルタイム追跡

Download on the App Store